• In Russia
  • List of Countries
  • For 7 days
  • Water Temperature
  • Satellite Maps
  • Weather Map
  • Weather Widgets
  • user-avatar
    Login

    Hourly Weather Honholoy

    Today, 26 September, Wednesday

    Time Temperature Precipitation Wind Pressure Humidity
    00:00 +8°C° 0 mm 1 mps 688 mmHg 68%
    01:00 +8°C° 0 mm 1 mps 688 mmHg 69%
    02:00 +8°C° 0 mm 1 mps 688 mmHg 70%
    03:00 +8°C° 0 mm 1 mps 688 mmHg 71%
    04:00 +8°C° 0 mm 1 mps 688 mmHg 71%
    05:00 +8°C° 0 mm 1 mps 688 mmHg 70%
    06:00 +9°C° 0 mm 1 mps 688 mmHg 69%
    07:00 +8°C° 0 mm 0 mps 688 mmHg 66%
    08:00 +11°C° 0 mm 0 mps 688 mmHg 60%
    09:00 +13°C° 0 mm 0 mps 688 mmHg 55%
    10:00 +16°C° 0 mm 1 mps 688 mmHg 49%
    11:00 +18°C° 0 mm 1 mps 688 mmHg 48%
    12:00 +18°C° 0 mm 1 mps 688 mmHg 48%
    13:00 +18°C° 0 mm 2 mps 687 mmHg 47%
    14:00 +16°C° 0 mm 2 mps 687 mmHg 55%
    15:00 +14°C° 0 mm 3 mps 687 mmHg 62%
    16:00 +13°C° 0 mm 3 mps 686 mmHg 70%
    17:00 +11°C° 0.1 mm 3 mps 686 mmHg 77%
    18:00 +9°C° 0.1 mm 3 mps 686 mmHg 83%
    19:00 +7°C° 0.1 mm 2 mps 686 mmHg 90%
    20:00 +7°C° 1 mm 3 mps 686 mmHg 90%
    21:00 +7°C° 1 mm 3 mps 686 mmHg 90%
    22:00 +5°C° 1 mm 3 mps 686 mmHg 90%
    23:00 +5°C° 1.7 mm 3 mps 686 mmHg 91%

    Tomorrow, 27 September, Thursday

    Time Temperature Precipitation Wind Pressure Humidity
    00:00 +5°C° 1.7 mm 3 mps 686 mmHg 92%
    01:00 +5°C° 1.7 mm 2 mps 686 mmHg 92%
    02:00 +4°C° 0.5 mm 3 mps 686 mmHg 92%
    03:00 +4°C° 0.5 mm 3 mps 687 mmHg 92%
    04:00 +4°C° 0.5 mm 3 mps 687 mmHg 92%
    05:00 +4°C° 0.1 mm 3 mps 687 mmHg 91%
    06:00 +4°C° 0.1 mm 4 mps 688 mmHg 90%
    07:00 +3°C° 0.1 mm 4 mps 688 mmHg 89%
    08:00 +4°C° 0 mm 4 mps 688 mmHg 86%
    09:00 +3°C° 0 mm 5 mps 688 mmHg 83%
    10:00 +3°C° 0 mm 5 mps 688 mmHg 80%
    11:00 +3°C° 0.1 mm 5 mps 688 mmHg 76%
    12:00 +3°C° 0.1 mm 5 mps 688 mmHg 71%
    13:00 +5°C° 0.1 mm 5 mps 688 mmHg 66%
    14:00 +5°C° 0 mm 5 mps 688 mmHg 66%
    15:00 +3°C° 0 mm 5 mps 688 mmHg 66%
    16:00 +3°C° 0 mm 5 mps 688 mmHg 65%
    17:00 +4°C° 0 mm 4 mps 688 mmHg 69%
    18:00 +3°C° 0 mm 4 mps 688 mmHg 72%
    19:00 +1°C° 0 mm 4 mps 688 mmHg 75%
    20:00 +1°C° 0 mm 3 mps 688 mmHg 79%
    21:00 +1°C° 0 mm 3 mps 687 mmHg 82%
    22:00 0°C° 0 mm 3 mps 687 mmHg 85%
    23:00 0°C° 0 mm 3 mps 687 mmHg 87%

    Day after tomorrow, 28 September, Friday

    Time Temperature Precipitation Wind Pressure Humidity
    00:00 0°C° 0 mm 3 mps 687 mmHg 88%
    01:00 -1°C° 0 mm 3 mps 686 mmHg 90%
    02:00 -1°C° 0 mm 3 mps 686 mmHg 90%
    03:00 -1°C° 0 mm 3 mps 686 mmHg 91%
    04:00 -1°C° 0 mm 3 mps 686 mmHg 91%
    05:00 -1°C° 0 mm 3 mps 686 mmHg 89%
    06:00 -1°C° 0 mm 4 mps 686 mmHg 86%
    07:00 -1°C° 0 mm 4 mps 686 mmHg 83%
    08:00 0°C° 0 mm 4 mps 686 mmHg 78%
    09:00 +1°C° 0 mm 5 mps 687 mmHg 73%
    10:00 +2°C° 0 mm 5 mps 687 mmHg 68%
    11:00 +3°C° 0.2 mm 5 mps 688 mmHg 67%
    12:00 +3°C° 0.2 mm 5 mps 688 mmHg 66%
    13:00 +3°C° 0.2 mm 6 mps 688 mmHg 66%
    14:00 +3°C° 0.3 mm 5 mps 689 mmHg 69%
    15:00 +3°C° 0.3 mm 5 mps 689 mmHg 72%
    16:00 +2°C° 0.3 mm 5 mps 690 mmHg 76%
    17:00 +3°C° 0.1 mm 4 mps 690 mmHg 79%
    18:00 +1°C° 0.1 mm 4 mps 691 mmHg 82%
    19:00 +2°C° 0.1 mm 3 mps 691 mmHg 86%
    20:00 +1°C° 0 mm 3 mps 692 mmHg 87%
    21:00 +2°C° 0 mm 2 mps 692 mmHg 89%
    22:00 +2°C° 0 mm 2 mps 692 mmHg 90%
    23:00 +2°C° 0 mm 2 mps 692 mmHg 91%

    29 September, Saturday

    Time Temperature Precipitation Wind Pressure Humidity
    00:00 +1°C° 0 mm 2 mps 692 mmHg 93%
    01:00 +1°C° 0 mm 2 mps 692 mmHg 94%
    02:00 +1°C° 0.7 mm 2 mps 692 mmHg 94%
    03:00 +2°C° 0.7 mm 1 mps 692 mmHg 94%
    04:00 +3°C° 0.7 mm 1 mps 693 mmHg 94%
    05:00 +3°C° 0.2 mm 1 mps 693 mmHg 94%
    06:00 +3°C° 0.2 mm 1 mps 694 mmHg 93%
    07:00 +3°C° 0.2 mm 1 mps 694 mmHg 93%
    08:00 +4°C° 0 mm 1 mps 694 mmHg 90%
    09:00 +5°C° 0 mm 1 mps 695 mmHg 87%
    10:00 +6°C° 0 mm 1 mps 695 mmHg 83%
    11:00 +7°C° 0 mm 1 mps 695 mmHg 81%
    12:00 +8°C° 0 mm 1 mps 695 mmHg 80%
    13:00 +9°C° 0 mm 1 mps 695 mmHg 78%
    14:00 +9°C° 0 mm 1 mps 695 mmHg 80%
    15:00 +9°C° 0 mm 1 mps 695 mmHg 82%
    16:00 +8°C° 0 mm 0 mps 695 mmHg 84%
    17:00 +7°C° 0 mm 0 mps 695 mmHg 87%
    18:00 +7°C° 0 mm 1 mps 695 mmHg 90%
    19:00 +6°C° 0 mm 1 mps 696 mmHg 92%
    20:00 +6°C° 0 mm 1 mps 696 mmHg 93%
    21:00 +6°C° 0 mm 1 mps 696 mmHg 94%
    22:00 +5°C° 0 mm 1 mps 696 mmHg 94%
    23:00 +5°C° 0 mm 1 mps 696 mmHg 94%

    30 September, Sunday

    Time Temperature Precipitation Wind Pressure Humidity
    00:00 +4°C° 0 mm 1 mps 696 mmHg 95%
    01:00 +4°C° 0 mm 1 mps 696 mmHg 95%
    02:00 +3°C° 0 mm 1 mps 695 mmHg 95%
    03:00 +3°C° 0 mm 1 mps 695 mmHg 95%
    04:00 +2°C° 0 mm 1 mps 695 mmHg 95%
    05:00 +2°C° 0 mm 1 mps 696 mmHg 93%
    06:00 +3°C° 0 mm 1 mps 696 mmHg 92%
    07:00 +3°C° 0 mm 1 mps 696 mmHg 90%
    08:00 +5°C° 0 mm 1 mps 696 mmHg 84%
    09:00 +7°C° 0 mm 1 mps 696 mmHg 77%
    10:00 +8°C° 0 mm 2 mps 696 mmHg 71%
    11:00 +9°C° 0 mm 2 mps 695 mmHg 68%
    12:00 +10°C° 0 mm 2 mps 695 mmHg 65%
    13:00 +11°C° 0 mm 3 mps 695 mmHg 61%
    14:00 +12°C° 0 mm 2 mps 695 mmHg 62%
    15:00 +12°C° 0 mm 2 mps 695 mmHg 63%
    16:00 +10°C° 0 mm 2 mps 694 mmHg 64%
    17:00 +8°C° 0 mm 2 mps 694 mmHg 71%
    18:00 +8°C° 0 mm 1 mps 695 mmHg 77%
    19:00 +6°C° 0 mm 1 mps 695 mmHg 84%
    20:00 +5°C° 0 mm 1 mps 695 mmHg 85%
    21:00 +5°C° 0 mm 1 mps 695 mmHg 86%
    22:00 +4°C° 0 mm 1 mps 695 mmHg 87%
    23:00 +4°C° 0 mm 1 mps 694 mmHg 88%

    1 October, Monday

    Time Temperature Precipitation Wind Pressure Humidity
    00:00 +4°C° 0 mm 1 mps 694 mmHg 89%
    01:00 +3°C° 0 mm 1 mps 694 mmHg 89%
    02:00 +3°C° 0 mm 1 mps 694 mmHg 90%
    03:00 +3°C° 0 mm 1 mps 694 mmHg 91%
    04:00 +3°C° 0 mm 1 mps 694 mmHg 91%
    05:00 +3°C° 0 mm 1 mps 694 mmHg 89%
    06:00 +4°C° 0 mm 1 mps 694 mmHg 88%
    07:00 +5°C° 0 mm 1 mps 694 mmHg 86%
    08:00 +7°C° 0 mm 1 mps 694 mmHg 78%
    09:00 +8°C° 0 mm 2 mps 694 mmHg 71%
    10:00 +10°C° 0 mm 2 mps 694 mmHg 63%
    11:00 +12°C° 0 mm 2 mps 693 mmHg 60%
    12:00 +12°C° 0 mm 3 mps 693 mmHg 56%
    13:00 +13°C° 0 mm 3 mps 693 mmHg 53%
    14:00 +13°C° 0 mm 3 mps 692 mmHg 55%
    15:00 +14°C° 0 mm 2 mps 692 mmHg 57%
    16:00 +13°C° 0 mm 2 mps 692 mmHg 59%
    17:00 +11°C° 0 mm 1 mps 692 mmHg 66%
    18:00 +9°C° 0 mm 1 mps 692 mmHg 73%
    19:00 +7°C° 0 mm 1 mps 691 mmHg 80%
    20:00 +7°C° 0 mm 1 mps 691 mmHg 82%
    21:00 +7°C° 0 mm 1 mps 691 mmHg 83%
    22:00 +6°C° 0 mm 1 mps 691 mmHg 85%
    23:00 +6°C° 0 mm 1 mps 691 mmHg 86%
    Show more